sat.trackr.live / text

‹ back to catalog

STARLINK-30306

NORAD 57633 · 2023-122B

PAYLOAD ACTIVE UNKNOWN

§ Identity

Operator
Country
US
Launch date
2023-08-17
Launch site
AFETR
Launch vehicle
Mass (kg)
RCS (m²)

Purposes: comms

External: N2YO · Heavens-Above · Gunter

§ Orbital elements

Epoch: 2026-09-20T05:00:27.469728Z

Period
94.27 min
Inclination
43.0055°
Eccentricity
0.0002428
Mean motion
15.27574862 rev/d
Perigee alt
481.4 km
Apogee alt
484.7 km
Semi-major
6,861.2 km
B*
1.7205e-5
RAAN
74.1721°
Arg perigee
258.3806°
Mean anomaly
101.6773°
Rev number
17,195

§ Raw data

STARLINK-303061 57633U 23122B   26263.20865127  .00000211  00000+0  17205-4 0  99962 57633  43.0055  74.1721 0002428 258.3806 101.6773 15.27574862171958

JSON: /api/v1/satellites/57633 · /tle

For live sub-satellite position, see the globe view (requires WebGL).

§ Visibility from observer

Set your observer location to see the next 7 days of passes ≥ 10°. The values pass through the URL so the page stays shareable.

No JS? Fill the form by hand. The geolocation button needs JavaScript.